LEMUR 1

导读

LEMUR 1是美国Spire Global公司开发的低地球多用途接收器立方星,于2014年6月19日发射升空。作为该系列首颗验证卫星,它属于3U级立方星,重量约8公斤,运行在500公里以下低地球轨道。卫星搭载反射计技术,可监测天气模式、收集海洋航行数据,同时意外实现了GPS干扰检测等电子战相关功能,为后续Lemur卫星星座商业化发展奠定了技术基础。

基本信息
目录编号:
40044
目录名称:
LEMUR 1
国际标识:
2014-033AL
轨道中心:
EARTH
卫星名称:
LEMUR 1
卫星全名:
--
卫星状态:
在轨 (已飞行4467 天)
发射日期:
2014-06-19 UTC
国别 :
美国 (US)
星等 :
--
该卫星已列入 空间交会检测服务 Space Conjunction Data Service (SCDS) ,当前飞行风险评估等级: 无高风险
轨道信息
数据来源 国际轨道数据
星历时间: 2026-09-10T17:00:00+0800
1天前
查看轨道信息
半长轴: 6990.131km
偏心率: 0.0048578
轨道倾角: 97.800°
近地点辐角 157.107°
升交点赤经 41.363°
平近点角 203.232°
近地点: 578.037km
远地点: 645.951km
周期: 96.937分钟
每日圈数: 14.855075
详细信息
使用方式:
暂无
2D轨道图
3D轨道图
轨道高度分析图
轨道倾角分析图
轨道综合分析图
查看轨道综合分析图
交会数据列表
事件ID 空间交会对象 最接近时刻(TCA) 交会距离 交会风险概率(CRP) 交会风险指数(CRI) 操作
CDM_260911-160302-597704-004429
LEMUR 1 (40044)
2026-09-11T
16:03:35+0000
1.524 km
极远距离
5.811437E-6 低风险 0.5
CDM_260912-013804-004405-891327
LEMUR 1 (40044)
2026-09-12T
01:38:32+0000
1.531 km
极远距离
5.203151E-6 低风险 0.49
CDM_260912-133404-004405-630826
LEMUR 1 (40044)
POEM 2 (56308)
2026-09-12T
13:34:22+0000
1.955 km
极远距离
2.502174E-6 低风险 0.43
与全量物体交会距离演化趋势
与全量物体交会风险概率演化趋势